Weather History for KIKK - February, 2013

Change the Weather History Date:

Sunday, February 3, 2013

  Actual Average Record
Temperature  
Mean Temperature 18 °F -  
Max Temperature 24 °F - - ()
Min Temperature 11 °F - - ()
Degree Days  
Heating Degree Days 48    
Moisture  
Dew Point 14 °F    
Average Humidity 80    
Maximum Humidity 95    
Minimum Humidity 68    
Precipitation  
Precipitation 0.00 in - - ()
Sea Level Pressure  
Sea Level Pressure 30.03 in    
Wind  
Wind Speed 7 mph (West)    
Max Wind Speed 17 mph    
Max Gust Speed 26 mph    
Visibility 8 miles    
Events Snow    
T = Trace of Precipitation, MM = Missing Value Source: NWS Daily Summary

Daily Weather History Graph

Daily Weather History Graph

Search for Another Location

Airport or City:

Trip Planner

Search our weather history database for the weather conditions in past years. The results will help you decide how hot, cold, wet, or windy it might be!

Date:

Astronomy

Feb. 03, 2013 Rise Set
Actual Time 6:59 AM CST 5:11 PM CST
Civil Twilight 6:30 AM CST 5:40 PM CST
Nautical Twilight 5:58 AM CST 6:13 PM CST
Astronomical Twilight 5:25 AM CST 6:45 PM CST
Moon 12:27 AM CST (2/3) 10:47 AM CST (2/3)
Length of Visible Light 11h 09m
Length of Day
10h 11m
Waning Gibbous, 48% of the Moon is Illuminated
Feb 3
Waning Gibbous
Feb 10
New
Feb 17
First Quarter
Feb 25
Full
Mar 4
Last Quarter

Hourly Weather History & Observations

Time (CST) Temp. Windchill Dew Point Humidity Pressure Visibility Wind Dir Wind Speed Gust Speed Precip Events Conditions
12:15 AM 11.3 °F -0.4 °F 5.5 °F 78% 30.05 in 10.0 mi West 8.1 mph - N/A   Overcast
12:35 AM 11.3 °F 0.7 °F 5.9 °F 79% 30.04 in 10.0 mi West 6.9 mph - N/A   Overcast
12:55 AM 11.5 °F 2.1 °F 6.1 °F 79% 30.03 in 10.0 mi West 5.8 mph - N/A   Overcast
1:15 AM 11.7 °F 5.5 °F 5.9 °F 78% 30.02 in 10.0 mi West 3.5 mph - N/A   Overcast
1:35 AM 11.7 °F 3.7 °F 6.3 °F 79% 30.02 in 10.0 mi West 4.6 mph - N/A   Mostly Cloudy
1:55 AM 12.0 °F 4.1 °F 6.6 °F 79% 30.02 in 10.0 mi West 4.6 mph - N/A   Mostly Cloudy
2:15 AM 12.2 °F 4.3 °F 6.6 °F 78% 30.01 in 10.0 mi West 4.6 mph - N/A   Overcast
2:35 AM 12.2 °F 4.3 °F 7.3 °F 81% 30.00 in 10.0 mi West 4.6 mph - N/A Snow Light Snow
2:55 AM 12.2 °F 4.3 °F 7.5 °F 82% 30.00 in 5.0 mi WSW 4.6 mph - N/A Snow Light Snow
3:15 AM 12.2 °F 2.9 °F 7.3 °F 81% 29.99 in 5.0 mi West 5.8 mph - N/A Snow Light Snow
3:35 AM 12.2 °F 4.3 °F 8.1 °F 83% 29.99 in 4.0 mi WSW 4.6 mph - N/A Snow Light Snow
3:55 AM 12.2 °F 4.3 °F 8.6 °F 85% 29.99 in 4.0 mi WSW 4.6 mph - N/A Snow Light Snow
4:15 AM 12.2 °F 6.1 °F 8.4 °F 85% 29.98 in 5.0 mi WSW 3.5 mph - N/A Snow Light Snow
4:35 AM 12.6 °F - 9.0 °F 85% 29.98 in 5.0 mi Calm Calm - N/A Snow Light Snow
4:55 AM 12.7 °F - 9.3 °F 86% 29.97 in 5.0 mi Calm Calm - N/A Snow Light Snow
5:15 AM 12.9 °F 5.2 °F 9.5 °F 86% 29.97 in 7.0 mi SW 4.6 mph - N/A Snow Light Snow
5:35 AM 13.1 °F 4.0 °F 9.9 °F 87% 29.98 in 10.0 mi SW 5.8 mph - N/A Snow Light Snow
5:55 AM 13.1 °F 4.0 °F 10.0 °F 88% 29.99 in 10.0 mi SW 5.8 mph - N/A Snow Light Snow
6:15 AM 13.6 °F 4.6 °F 10.4 °F 87% 29.99 in 10.0 mi SW 5.8 mph - N/A Snow Light Snow
6:35 AM 14.0 °F 5.1 °F 11.1 °F 88% 29.99 in 7.0 mi SW 5.8 mph - N/A Snow Light Snow
6:55 AM 14.2 °F 4.1 °F 11.5 °F 89% 29.99 in 7.0 mi SW 6.9 mph - N/A Snow Light Snow
7:15 AM 14.5 °F 4.6 °F 12.7 °F 93% 30.00 in 2.5 mi SW 6.9 mph - N/A Snow Light Snow
7:35 AM 14.7 °F 5.9 °F 13.1 °F 93% 30.00 in 1.8 mi SW 5.8 mph - N/A   Overcast
7:55 AM 14.9 °F 6.1 °F 13.8 °F 95% 30.00 in 1.8 mi WSW 5.8 mph - N/A Snow Light Snow
8:15 AM 15.6 °F 8.3 °F 14.4 °F 95% 30.00 in 1.8 mi WSW 4.6 mph - N/A Snow Light Snow
8:35 AM 16.2 °F 7.6 °F 14.7 °F 94% 30.00 in 3.0 mi WSW 5.8 mph - N/A Snow Light Snow
8:55 AM 16.9 °F 7.4 °F 15.1 °F 93% 30.00 in 3.0 mi WSW 6.9 mph - N/A Snow Light Snow
9:15 AM 17.6 °F 8.2 °F 15.6 °F 92% 30.00 in 2.0 mi West 6.9 mph - N/A Snow Light Snow
9:35 AM 18.5 °F 8.4 °F 16.2 °F 91% 30.00 in 2.0 mi West 8.1 mph - N/A Snow Light Snow
9:55 AM 19.2 °F 8.4 °F 16.5 °F 89% 30.01 in 4.0 mi West 9.2 mph - N/A Snow Light Snow
10:15 AM 19.8 °F 7.7 °F 16.5 °F 87% 30.01 in 3.0 mi West 11.5 mph - N/A Snow Light Snow
10:35 AM 20.3 °F 8.3 °F 16.9 °F 87% 30.01 in 2.5 mi West 11.5 mph - N/A Snow Light Snow
10:55 AM 21.2 °F 10.1 °F 16.2 °F 81% 30.01 in 3.0 mi NW 10.4 mph 18.4 mph N/A Snow Light Snow
11:15 AM 21.0 °F 9.3 °F 15.1 °F 78% 30.01 in 10.0 mi WNW 11.5 mph 19.6 mph N/A   Overcast
11:35 AM 21.7 °F 8.5 °F 15.8 °F 78% 30.02 in 10.0 mi WNW 15.0 mph 19.6 mph N/A   Overcast
11:55 AM 21.9 °F 9.2 °F 14.9 °F 74% 30.02 in 10.0 mi WNW 13.8 mph 20.7 mph N/A Snow Light Snow
12:15 PM 22.1 °F 8.5 °F 15.8 °F 77% 30.02 in 7.0 mi West 16.1 mph 25.3 mph N/A   Overcast
12:35 PM 21.7 °F 7.5 °F 14.0 °F 72% 30.02 in 10.0 mi WNW 17.3 mph 24.2 mph N/A   Mostly Cloudy
12:55 PM 21.9 °F 9.2 °F 14.5 °F 73% 30.02 in 10.0 mi WNW 13.8 mph - N/A   Scattered Clouds
1:15 PM 22.6 °F 9.2 °F 15.3 °F 73% 30.04 in 10.0 mi West 16.1 mph 19.6 mph N/A   Mostly Cloudy
1:35 PM 22.6 °F 8.7 °F 14.9 °F 72% 30.04 in 7.0 mi West 17.3 mph 26.5 mph N/A   Overcast
1:55 PM 23.2 °F 10.3 °F 14.7 °F 70% 30.03 in 10.0 mi West 15.0 mph 24.2 mph N/A   Mostly Cloudy
2:15 PM 23.0 °F 9.6 °F 14.7 °F 71% 30.04 in 10.0 mi West 16.1 mph 23.0 mph N/A   Mostly Cloudy
2:35 PM 23.4 °F 10.6 °F 15.4 °F 72% 30.05 in 10.0 mi West 15.0 mph 24.2 mph N/A   Scattered Clouds
2:55 PM 23.5 °F 10.8 °F 15.6 °F 72% 30.06 in 10.0 mi West 15.0 mph - N/A   Scattered Clouds
3:15 PM 23.2 °F 10.8 °F 14.4 °F 69% 30.07 in 10.0 mi West 13.8 mph - N/A   Clear
3:35 PM 23.0 °F 11.1 °F 14.4 °F 70% 30.07 in 10.0 mi West 12.7 mph 17.3 mph N/A   Clear
3:55 PM 23.0 °F 11.7 °F 14.0 °F 68% 30.06 in 10.0 mi West 11.5 mph - N/A   Clear
4:15 PM 23.0 °F 11.1 °F 14.0 °F 68% 30.06 in 10.0 mi West 12.7 mph - N/A   Scattered Clouds
4:35 PM 23.0 °F 11.7 °F 14.0 °F 68% 30.06 in 10.0 mi West 11.5 mph - N/A   Overcast
4:55 PM 21.7 °F 12.3 °F 14.0 °F 72% 30.06 in 10.0 mi West 8.1 mph - N/A   Overcast
5:15 PM 21.4 °F 12.8 °F 13.8 °F 73% 30.05 in 10.0 mi West 6.9 mph - N/A   Scattered Clouds
5:35 PM 20.7 °F 14.2 °F 13.8 °F 75% 30.06 in 10.0 mi WSW 4.6 mph - N/A   Mostly Cloudy
5:55 PM 21.0 °F 14.6 °F 14.9 °F 77% 30.05 in 10.0 mi WSW 4.6 mph - N/A   Overcast
6:15 PM 22.1 °F 14.7 °F 15.3 °F 75% 30.06 in 10.0 mi West 5.8 mph - N/A   Overcast
6:35 PM 22.5 °F 15.1 °F 14.7 °F 72% 30.06 in 10.0 mi West 5.8 mph - N/A   Overcast
6:55 PM 22.5 °F 16.3 °F 15.4 °F 74% 30.06 in 10.0 mi WSW 4.6 mph - N/A   Overcast
7:15 PM 22.6 °F 16.5 °F 15.6 °F 74% 30.06 in 10.0 mi WSW 4.6 mph - N/A   Overcast
7:35 PM 22.6 °F 18.0 °F 16.7 °F 78% 30.06 in 10.0 mi WSW 3.5 mph - N/A   Overcast
7:55 PM 23.0 °F 17.0 °F 17.2 °F 79% 30.07 in 10.0 mi SW 4.6 mph - N/A   Overcast
8:15 PM 23.0 °F 17.0 °F 17.1 °F 78% 30.06 in 10.0 mi WSW 4.6 mph - N/A   Overcast
8:35 PM 23.0 °F 15.8 °F 17.2 °F 79% 30.07 in 10.0 mi SW 5.8 mph - N/A   Overcast
8:55 PM 23.0 °F 14.7 °F 18.3 °F 82% 30.07 in 10.0 mi SW 6.9 mph - N/A   Overcast
9:15 PM 23.5 °F 14.5 °F 18.5 °F 81% 30.07 in 10.0 mi WSW 8.1 mph - N/A   Overcast
9:35 PM 23.7 °F 16.6 °F 19.4 °F 84% 30.08 in 10.0 mi SW 5.8 mph - N/A Snow Light Snow
9:55 PM 23.9 °F 16.8 °F 19.8 °F 84% 30.07 in 10.0 mi WSW 5.8 mph - N/A   Overcast
10:15 PM 24.6 °F 15.1 °F 19.2 °F 80% 30.08 in 10.0 mi WSW 9.2 mph - N/A Snow Light Snow
10:35 PM 24.8 °F 13.4 °F 18.3 °F 76% 30.07 in 10.0 mi West 12.7 mph - N/A   Overcast
10:55 PM 23.9 °F 14.2 °F 20.3 °F 86% 30.07 in 4.0 mi West 9.2 mph - N/A Snow Light Snow
11:15 PM 23.7 °F 17.8 °F 20.3 °F 87% 30.06 in 10.0 mi WNW 4.6 mph - N/A   Overcast
11:35 PM 23.9 °F 19.5 °F 20.1 °F 85% 30.06 in 10.0 mi WNW 3.5 mph - N/A   Overcast
11:55 PM 23.9 °F - 20.1 °F 85% 30.05 in 10.0 mi Calm Calm - N/A   Overcast